This demonstration page uses our WeatherBlox Daily Observations layout. Learn more.

Left ArrowRight Arrow

34.74481, -87.66753

Hourly Observations for June 13, 2018

Temp ( °F °C ) Dew Point ( °F °C ) Humidity (%) Winds ( mph kmh ) Pressure ( in mb ) Visibility ( mi km ) Precip ( " mm )
12:53 am 00:53 Partly Cloudy 73 22.8 70 21.1 90 90 WSW 3 6 30.01 1016 10 16 0.00 0.00
1:53 am 01:53 Partly Cloudy 73 22.8 70 21.1 90 90 Calm 30.01 1016 10 16 0.00 0.00
2:53 am 02:53 Cloudy with Light Rain 72 22.2 70 21.1 94 94 S 5 7 30.01 1016 9 14 0.01 0.25
3:29 am 03:29 Mostly Cloudy 73 22.8 70 21.1 90 90 WNW 3 6 30.00 1016 10 16 0.01 0.25
3:53 am 03:53 Mostly Cloudy 72 22.2 69 20.6 91 91 SW 5 7 30.01 1016 10 16 0.01 0.25
4:06 am 04:06 Partly Cloudy 72 22.2 69 20.6 91 91 S 8 13 30.00 1016 10 16 0.00 0.00
4:53 am 04:53 Mostly Clear 71 21.7 69 20.6 94 94 S 6 9 29.99 1016 10 16 0.00 0.00
5:53 am 05:53 Mostly Sunny 71 21.7 69 20.6 94 94 NNE 5 7 30.01 1016 10 16 0.00 0.00
6:53 am 06:53 Mostly Cloudy 73 22.8 70 21.1 90 90 S 5 7 30.03 1017 10 16 0.00 0.00
7:53 am 07:53 Mostly Cloudy 73 22.8 70 21.1 90 90 S 5 7 30.04 1017 10 16 0.01 0.25
8:38 am 08:38 Mostly Cloudy 74 23.3 71 21.7 91 91 SSW 9 15 30.03 1017 10 16 0.00 0.00
8:53 am 08:53 Mostly Cloudy 76 24.4 71 21.7 85 85 SSW 7 11 30.04 1017 10 16 0.00 0.00
9:12 am 09:12 Partly Cloudy 77 25 71 21.7 82 82 SW 7 11 30.03 1017 10 16 0.00 0.00
9:53 am 09:53 Partly Cloudy 79 26.1 71 21.7 77 77 W 12 19 30.06 1018 10 16 0.00 0.00
10:19 am 10:19 Cloudy 79 26.1 70 21.1 74 74 W 12 19 30.06 1018 10 16 0.00 0.00
10:53 am 10:53 Cloudy with Light Rain 76 24.4 72 22.2 88 88 NW 8 13 30.08 1019 10 16 0.01 0.25
11:14 am 11:14 Cloudy with Heavy Rain 74 23.3 71 21.7 91 91 NW 7 11 30.09 1019 7 11 0.04 1.02
11:25 am 11:25 Cloudy with Rain 73 22.8 71 21.7 94 94 NNW 3 6 30.06 1018 6 10 0.07 1.78
11:34 am 11:34 Cloudy with Heavy Rain 73 22.8 71 21.7 94 94 WNW 3 6 30.06 1018 4 6 0.11 2.79
11:53 am 11:53 Cloudy with Heavy Rain 73 22.8 71 21.7 94 94 SSW 3 6 30.08 1019 4 6 0.17 4.32
12:53 pm 12:53 Cloudy with Light Rain 74 23.3 71 21.7 91 91 W 14 22 30.08 1019 10 16 0.09 2.29
1:53 pm 13:53 Partly Cloudy 75 23.9 71 21.7 88 88 WSW 14 22 30.04 1017 10 16 0.02 0.51
2:53 pm 14:53 Partly Cloudy 77 25 71 21.7 82 82 W 12 19 30.02 1017 10 16 0.00 0.00
3:53 pm 15:53 Sunny 78 25.6 70 21.1 76 76 W 7 11 30.01 1016 10 16 0.00 0.00
4:53 pm 16:53 Sunny 81 27.2 70 21.1 69 69 WNW 7 11 30.00 1016 10 16 0.00 0.00
5:44 pm 17:44 Mostly Cloudy 80 26.7 70 21.1 71 71 W 5 7 30.00 1016 10 16 0.00 0.00
5:53 pm 17:53 Cloudy 79 26.1 70 21.1 74 74 WSW 7 11 30.00 1016 10 16 0.00 0.00
6:53 pm 18:53 Cloudy 79 26.1 71 21.7 77 77 SW 6 9 30.00 1016 10 16 0.00 0.00
7:30 pm 19:30 Cloudy 78 25.6 70 21.1 76 76 WSW 7 11 30.00 1016 10 16 0.00 0.00
7:53 pm 19:53 Mostly Sunny 77 25 70 21.1 79 79 WSW 5 7 30.01 1016 10 16 0.00 0.00
8:53 pm 20:53 Clear 74 23.3 71 21.7 91 91 SE 3 6 30.02 1017 10 16 0.00 0.00
9:53 pm 21:53 Clear 73 22.8 71 21.7 94 94 Calm 30.03 1017 10 16 0.00 0.00
10:53 pm 22:53 Clear 72 22.2 70 21.1 94 94 Calm 30.03 1017 10 16 0.00 0.00
11:53 pm 23:53 Clear 72 22.2 70 21.1 94 94 Calm 30.04 1017 10 16 0.00 0.00

Powered by AerisWeather